N6YV Weather Reports


Display with metric or nautical units.
time (UTC)temp
F
wind
direction
speed
MPH
gust
MPH
rain 1hr
in
rain 24hr
in
rain mn
in
humidity
%
barometer
mb
20260505003030 48 209 7.0 0.0 0.00 0.00 0.05 82 1003.4
20260505001531 49 211 7.0 0.0 0.00 0.00 0.03 80 1002.9
20260505000038 51 173 7.0 0.0 0.00 0.00 0.02 73 1002.3
20260504234533 50 234 9.0 0.0 0.00 0.00 0.02 73 1001.9
20260504233033 52 225 9.0 0.0 0.00 0.00 0.02 71 1002.3
20260504231528 53 210 10.0 0.0 0.00 0.00 0.02 70 1002.1
20260504230026 54 197 7.0 0.0 0.00 0.00 0.02 65 1002.5
20260504224526 54 188 9.0 0.0 0.00 0.00 0.02 64 1002.3
20260504223034 56 198 8.0 0.0 0.00 0.00 0.02 60 1002.4
20260504221527 56 167 6.0 0.0 0.00 0.00 0.02 63 1002.4
20260504220022 55 180 8.0 0.0 0.00 0.00 0.02 63 1002.6
20260504214525 56 211 8.0 0.0 0.00 0.00 0.02 63 1002.8
20260504213033 57 240 9.0 0.0 0.00 0.00 0.02 60 1003.1
20260504211523 55 168 10.0 0.0 0.00 0.00 0.02 65 1003.3
20260504210015 54 214 10.0 0.0 0.00 0.00 0.02 68 1003.5
20260504204532 54 203 9.0 0.0 0.00 0.00 0.02 74 1003.1
20260504203020 50 210 11.0 0.0 0.00 0.00 0.02 84 1003.2
20260504201510 51 209 12.0 0.0 0.00 0.00 0.02 80 1003.7
20260504200011 53 221 8.0 0.0 0.00 0.00 0.01 74 1003.7
20260504194508 53 213 5.0 0.0 0.00 0.00 0.01 76 1003.7
20260504193007 52 124 3.0 0.0 0.00 0.00 0.01 77 1003.7
20260504191506 52 134 4.0 0.0 0.00 0.00 0.01 80 1003.7
20260504190006 51 139 4.0 0.0 0.00 0.00 0.01 79 1003.6
20260504184505 51 132 3.0 0.0 0.00 0.00 0.01 78 1003.7
20260504183004 51 136 3.0 0.0 0.00 0.00 0.01 77 1003.6
20260504181511 51 98 3.0 0.0 0.00 0.00 0.01 78 1003.5
20260504180006 51 76 3.0 0.0 0.00 0.00 0.01 79 1003.5
20260504174504 51 355 3.0 0.0 0.00 0.00 0.01 77 1003.4
20260504173002 51 44 3.0 0.0 0.00 0.00 0.00 74 1003.4
20260504171502 52 44 3.0 0.0 0.00 0.00 0.00 68 1003.5
20260504081511 49 205 2.0 0.0 0.00 0.00 0.00 67 1003.3
20260504044605 50 201 2.0 0.0 0.00 0.00 0.00 66 1004.0
20260504043059 50 155 4.0 0.0 0.00 0.00 0.00 67 1003.9
20260504041557 49 90 3.0 0.0 0.00 0.00 0.00 69 1003.9
20260504040107 51 90 0.0 0.0 0.00 0.00 0.00 66 1003.5
20260504034625 52 90 0.0 0.0 0.00 0.00 0.00 64 1003.2
20260504033056 53 90 1.0 0.0 0.00 0.00 0.00 63 1002.8
20260504031555 54 90 0.0 0.0 0.00 0.00 0.00 60 1002.8
20260504030120 54 90 1.0 0.0 0.00 0.00 0.00 59 1002.8
20260504024559 55 95 3.0 0.0 0.00 0.00 0.00 55 1003.0
20260504023054 54 279 8.0 0.0 0.00 0.00 0.00 56 1002.7
20260504021554 54 26 2.0 0.0 0.00 0.00 0.00 58 1003.7
20260504020105 55 26 0.0 0.0 0.00 0.00 0.00 55 1004.4
20260504014558 55 26 1.0 0.0 0.00 0.00 0.00 54 1004.2
20260504013055 55 26 2.0 0.0 0.00 0.00 0.00 55 1003.9
20260504011551 56 26 5.0 0.0 0.00 0.00 0.00 54 1003.2
20260504010052 57 43 2.0 0.0 0.00 0.00 0.00 48 1003.1
20260504004551 57 105 3.0 0.0 0.00 0.00 0.00 48 1002.8